CZ-3B DEB, 40186

Orbit data source: Space-Track

CZ-3B DEB, 40186 is space debris in HEO originally from a launch on Mon, 19 Dec 2011 UTC launched from the Xichang Space Center, China (XSC). Debris objects in space refer to the collection of defunct objects orbiting the Earth. Examples of debris include non-operational satellites, rocket bodies, and fragments generated from explosions, collisions, or faulty payload assembly.

Loading next visibility...
Identifier
40186, 2011-077K
Orbit
HEO
Country
Flag of CNCN / PRC
Related business
Manufacturer
CALT
Mission
Spacecraft
Bus & Motor
Unknown
Mass
Unknown
Launch date (UTC)
2011-12-19 (14 years ago)
Launch vehicle
Unknown
Launch site
Xichang Space Center, China (XSC)
Object type
Payload
Rocket body
Debris
Shape & HBR
Unknown shape, 0.2 m
Radar Cross Section
Medium (>0.1 m² and <1 m²)

Expand to show TLE details & history
Last TLE update: 7 hours ago

TLE from 7 hours ago
0 CZ-3B DEB
1 40186U 11077K   26034.31966322 -.00000209  00000-0  00000+0 0  9993
2 40186  25.6886 118.2055 7292637 197.4031 120.1697  1.88729175 96592
Epoch: 2026-02-03T07:40Z
TLE epoch observation values (Epoch: 2026-02-03T07:40:18.902Z)
Latitude
1.26722°
Longitude
-127.68148°
Altitude
37,721.429 km
Speed
1.915 km/s
True Right ascension
08h 03m 35s
True Declination
1° 15' 58"
Sunlit
Object was in daylight at epoch
Visualization orbit readout
Latitude
Unknown
Longitude
Unknown
Altitude
Unknown
Speed
Unknown
Apparent Right ascension
Unknown
Apparent Declination
Unknown
Sunlit
N/A
Visualization observer readout
Local Sidereal Time
17:02:35
Azimuth
Unknown
Elevation
Unknown
Doppler factor
Unknown
Orbital elements
Apogee altitude
41,458.432 km
Perigee altitude
1,111.233 km
Semi-major axis
27,662.969 km
Eccentricity
0.72926
Inclination
25.6886°
RAAN
118.2055°
Arg. of periapsis
197.4031°
True anomaly
165.54508°
Mean anomaly
120.1697°
Eccentric anomaly
144.45836°
Mean motion
0.47173 °/min
Orbital period
763.15 mins
BSTAR
0
Loading maneuver chart data...
Computing Atmospheric mass density...
Loading historical data...
Loading historical data...
Loading historical data...
Loading historical data...
Loading historical data...
Loading historical data...
Loading historical data...

Documentation

Showing up to 5 results
|